Retour au catalogue

STARLINK-37636

ActifCommunicationsSSO
NORAD 69143·PAYLOAD·🇺🇸 United States

Lancé May 20, 2026 depuis Vandenberg Space Force Base

Loading…

Prochains Passages (prochaines 24 heures)

TLE

FraisSource: CelesTrak SupGP

Époque: Sep 15, 2026, 02:48 UTC

1 69143C 26110V   26258.11715278 -.00216780  00000+0 -67215-2 0  2584
2 69143  97.2850  93.3041 0001637  89.4000 300.7174 15.33585264    19

Suivez STARLINK-37636 en temps réel avec AllMySat

Download on the App Store